Waarnemingen

Advertentie
Mijn weer
Aurillac, Frankrijk (7549): temperatuur & dauwpunt: 14.10.2017 08:00:00 - 20.10.2017 08:00:00 (CEST)Aurillac, Frankrijk (7549): temperatuur 5cm: 14.10.2017 08:00:00 - 20.10.2017 08:00:00 (CEST)Aurillac, Frankrijk (7549): temperatuur -20cm & temperatuur -100cm: 14.10.2017 08:00:00 - 20.10.2017 08:00:00 (CEST)Aurillac, Frankrijk (7549): windsnelheid & windstoten: 14.10.2017 08:00:00 - 20.10.2017 08:00:00 (CEST)Aurillac, Frankrijk (7549): windrichting: 14.10.2017 08:00:00 - 20.10.2017 08:00:00 (CEST)Aurillac, Frankrijk (7549): luchtdruk: 14.10.2017 08:00:00 - 20.10.2017 08:00:00 (CEST)Aurillac, Frankrijk (7549): zicht: 14.10.2017 08:00:00 - 20.10.2017 08:00:00 (CEST)Aurillac, Frankrijk (7549): Zonneschijnduur: 14.10.2017 08:00:00 - 20.10.2017 08:00:00 (CEST)Aurillac, Frankrijk (7549): neerslag: 14.10.2017 08:00:00 - 20.10.2017 08:00:00 (CEST)
Datum & Tijd tt [°C] td [°C] tt 5cm [°C] tt -20cm [°C] tt -100cm [°C] ff [km/u] ff [kn] fx [km/u] fx [kn] dd ppp [hPa] vv [km] sd [min] rr [mm]
20.10.2017 08:00:00 12,6 11,0 11,9 14,7 15,2 5 3 10 5 ZO 1016,3 18 0 0,0
20.10.2017 07:00:00 12,3 11,4 11,9 14,7 15,2 3 2 10 5 O 1016,3 11 0 0,4
20.10.2017 06:00:00 12,4 11,3 11,9 14,7 15,2 3 2 14 7 O 1016,0 15 0 0,0
20.10.2017 05:00:00 12,7 11,3 12,0 14,8 15,2 6 4 10 6 ZZO 1015,7 8 0 0,0
20.10.2017 04:00:00 12,8 11,0 12,1 14,8 15,2 8 4 15 8 OZO 1015,6 20 0 0,0
20.10.2017 03:00:00 12,8 11,2 11,9 14,8 15,2 9 5 22 12 OZO 1015,3 19 0 0,0
20.10.2017 02:00:00 12,9 11,0 8,5 14,8 15,2 15 8 29 16 ZO 1014,8 13 0 0,0
20.10.2017 01:00:00 11,6 10,5 7,9 14,8 15,2 2 1 9 5 ZW 1014,8 10 0 0,2
20.10.2017 00:00:00 11,4 10,3 7,9 14,8 15,2 2 1 11 6 ZO 1014,5 11 0 0,0
19.10.2017 23:00:00 12,5 11,6 10,9 14,8 15,2 7 4 17 9 ZO 1013,7 15 0 0,0
19.10.2017 22:00:00 13,2 12,6 12,8 14,8 15,2 9 5 16 9 OZO 1013,7 11 0 0,0
19.10.2017 21:00:00 13,6 12,3 13,0 14,8 15,2 11 6 22 12 ZZO 1013,8 14 0 0,0
19.10.2017 20:00:00 13,8 12,5 13,0 14,8 15,2 13 7 31 17 ZO 1013,0 18 0 0,0
19.10.2017 19:00:00 14,2 12,4 13,4 14,8 15,2 13 7 26 14 ZO 1012,1 19 1 0,2
19.10.2017 18:00:00 14,6 12,6 13,9 14,8 15,2 14 7 29 15 ZO 1011,5 19 11 0,0
19.10.2017 17:00:00 14,3 12,8 13,9 14,8 15,2 14 8 24 13 ZO 1011,2 14 0 0,2
19.10.2017 16:00:00 14,0 12,9 13,7 14,8 15,2 11 6 31 17 ZO 1011,4 11 0 1,4
19.10.2017 15:00:00 14,5 12,4 13,7 14,8 15,2 18 10 34 18 ZZO 1011,1 19 4 0,2
19.10.2017 14:00:00 14,5 12,0 13,8 14,8 15,2 22 12 38 21 ZZO 1011,5 10 2 0,2
19.10.2017 13:00:00 14,1 12,1 13,3 14,8 15,2 19 11 42 23 ZZO 1012,0 10 0 0,0
19.10.2017 12:00:00 16,2 10,5 15,9 14,8 15,2 23 12 41 22 ZZO 1011,3 52 0 0,0
19.10.2017 11:00:00 15,5 10,7 14,7 14,8 15,2 23 12 45 24 ZO 1010,9 60 0 0,0
19.10.2017 10:00:00 14,2 10,8 12,7 14,8 15,2 22 12 47 26 ZO 1011,6 50 0 0,2
19.10.2017 09:00:00 14,3 10,3 13,2 14,9 15,2 20 11 39 21 ZO 1011,4 55 0 0,0
19.10.2017 08:00:00 14,5 10,3 12,7 14,9 15,2 22 12 50 27 ZO 1010,9 57 0 0,0
19.10.2017 07:00:00 14,4 11,2 12,7 14,9 15,2 20 11 53 28 ZO 1010,8 46 0 0,2
19.10.2017 06:00:00 15,6 10,8 14,4 14,9 15,2 31 17 50 27 ZZO 1010,3 48 0 0,0
19.10.2017 05:00:00 15,4 11,0 14,4 14,9 15,2 21 12 56 30 ZZO 1009,5 60 0 0,0
19.10.2017 04:00:00 16,0 11,2 14,9 14,9 15,2 32 17 54 29 ZO 1009,3 60 0 0,0
19.10.2017 03:00:00 16,1 11,3 15,1 14,9 15,2 25 13 58 32 ZO 1009,7 57 0 0,0
19.10.2017 02:00:00 16,3 11,9 15,3 14,9 15,2 27 15 58 31 ZO 1009,5 56 0 0,0
19.10.2017 01:00:00 16,6 11,5 15,4 14,9 15,2 29 16 55 30 ZO 1009,2 60 0 0,0
19.10.2017 00:00:00 16,6 11,3 15,0 14,9 15,2 25 14 52 28 ZO 1009,9 54 0 0,0
18.10.2017 23:00:00 16,4 11,5 14,1 14,9 15,2 24 13 47 26 ZO 1010,1 51 0 0,0
18.10.2017 22:00:00 16,4 12,2 14,3 14,8 15,2 24 13 45 25 ZO 1010,3 41 0 0,0
18.10.2017 21:00:00 16,3 11,7 15,1 14,8 15,2 25 13 47 26 ZO 1010,5 20 0 0,0
18.10.2017 20:00:00 16,2 12,0 15,0 14,7 15,2 22 12 45 25 OZO 1010,4 44 0 0,0
18.10.2017 19:00:00 16,4 12,0 15,6 14,7 15,2 22 12 48 26 OZO 1009,9 48 0 0,0
18.10.2017 18:00:00 17,4 12,1 17,4 14,6 15,2 31 17 56 30 ZO 1009,5 29 57 0,0
18.10.2017 17:00:00 18,9 12,4 20,8 14,6 15,2 27 14 45 25 ZO 1010,0 32 56 0,0
18.10.2017 16:00:00 19,3 12,1 19,9 14,6 15,2 23 12 46 25 ZO 1010,1 20 45 0,0
18.10.2017 15:00:00 18,4 11,9 19,2 14,5 15,2 28 15 46 25 ZO 1010,8 43 18 0,0
18.10.2017 14:00:00 19,3 12,3 19,2 14,5 15,2 26 14 48 26 ZO 1011,5 49 28 0,0
18.10.2017 13:00:00 18,1 11,9 18,4 14,5 15,2 22 12 41 22 OZO 1012,5 60 8 0,0
18.10.2017 12:00:00 17,8 11,8 18,9 14,6 15,2 25 14 48 26 OZO 1012,9 20 48 0,0
18.10.2017 11:00:00 17,0 11,9 15,5 14,6 15,2 19 10 40 22 OZO 1013,6 20 41 0,0
18.10.2017 10:00:00 15,1 10,3 13,9 14,6 15,2 18 10 30 16 OZO 1014,3 52 17 0,0
18.10.2017 09:00:00 14,1 9,7 12,3 14,7 15,2 16 8 26 14 O 1014,7 47 6 0,0
18.10.2017 08:00:00 13,4 9,3 12,0 14,7 15,2 15 8 27 14 O 1014,8 42 0 0,0
18.10.2017 07:00:00 13,0 9,1 11,4 14,7 15,2 14 8 27 14 O 1015,3 40 0 0,0
18.10.2017 06:00:00 12,8 8,9 11,0 14,8 15,2 15 8 23 13 O 1015,8 34 0 0,0
18.10.2017 05:00:00 12,5 8,8 11,0 14,8 15,2 13 7 22 12 O 1016,4 31 0 0,0
18.10.2017 04:00:00 12,6 8,7 10,8 14,8 15,2 15 8 26 14 O 1016,9 29 0 0,0
18.10.2017 03:00:00 12,5 8,6 10,7 14,8 15,2 13 7 21 12 O 1017,6 28 0 0,0
18.10.2017 02:00:00 12,4 8,1 10,7 14,9 15,2 14 8 26 14 O 1018,1 27 0 0,0
18.10.2017 01:00:00 12,2 7,9 10,7 14,9 15,2 12 7 22 12 O 1018,7 20 0 0,0
18.10.2017 00:00:00 12,4 8,1 10,9 14,9 15,2 14 7 24 13 O 1019,0 26 0 0,0
17.10.2017 23:00:00 12,7 8,4 11,2 14,8 15,2 15 8 24 13 O 1019,1 27 0 0,0
17.10.2017 22:00:00 13,0 8,5 11,7 14,8 15,2 14 7 24 13 O 1019,3 20 0 0,0
17.10.2017 21:00:00 13,5 8,8 11,5 14,8 15,2 16 9 32 17 OZO 1019,2 20 0 0,0
17.10.2017 20:00:00 14,2 8,8 11,4 14,7 15,2 14 8 21 12 ZO 1019,2 36 0 0,0
17.10.2017 19:00:00 15,9 8,4 13,6 14,6 15,2 12 6 28 15 ZZO 1018,3 52 40 0,0
17.10.2017 18:00:00 18,9 8,5 19,9 14,6 15,2 14 7 27 15 ZO 1017,4 35 60 0,0
17.10.2017 17:00:00 20,2 8,8 22,8 14,5 15,3 14 8 32 17 ZZO 1017,3 27 60 0,0
17.10.2017 16:00:00 20,5 7,8 23,2 14,5 15,2 22 12 42 23 ZZO 1017,6 27 60 0,0
17.10.2017 15:00:00 20,3 6,6 23,4 14,5 15,2 24 13 40 22 ZO 1018,1 28 60 0,0
17.10.2017 14:00:00 19,6 7,7 23,1 14,5 15,2 20 11 36 20 ZO 1018,9 20 60 0,0
17.10.2017 13:00:00 18,9 8,2 22,8 14,5 15,2 20 11 36 20 ZO 1019,9 19 60 0,0
17.10.2017 12:00:00 17,6 5,8 20,8 14,6 15,2 20 11 34 18 ZO 1020,6 48 60 0,0
17.10.2017 11:00:00 16,3 5,0 18,0 14,7 15,2 12 6 19 10 OZO 1021,4 20 60 0,0
17.10.2017 10:00:00 11,8 5,0 9,7 14,8 15,2 4 2 9 5 OZO 1022,9 7 60 0,0
17.10.2017 09:00:00 8,9 2,5 4,1 14,9 15,2 7 4 18 10 OZO 1023,8 8 40 0,0
17.10.2017 08:00:00 6,1 3,1 1,9 15,0 15,2 11 6 16 8 OZO 1024,4 16 0 0,0
17.10.2017 07:00:00 6,1 4,1 0,1 15,0 15,2 10 5 12 7 OZO 1025,0 5 0 0,0
17.10.2017 06:00:00 7,5 4,6 1,2 15,1 15,3 5 3 14 8 Z 1024,9 37 0 0,0
17.10.2017 05:00:00 9,2 6,5 5,6 15,1 15,2 10 6 20 11 OZO 1024,9 32 0 0,0
17.10.2017 04:00:00 8,2 6,2 2,9 15,2 15,2 10 5 13 7 OZO 1025,7 28 0 0,0
17.10.2017 03:00:00 8,6 6,7 3,2 15,2 15,2 5 3 12 6 ZO 1026,0 20 0 0,0
17.10.2017 02:00:00 10,7 7,9 6,4 15,2 15,3 9 5 11 6 OZO 1025,7 25 0 0,0
17.10.2017 01:00:00 11,1 8,3 7,7 15,3 15,2 9 5 17 9 OZO 1025,7 25 0 0,0
17.10.2017 00:00:00 11,6 8,8 8,9 15,3 15,2 11 6 23 13 O 1025,7 25 0 0,0
16.10.2017 23:00:00 12,5 9,5 9,7 15,2 15,3 10 5 18 10 O 1025,7 26 0 0,0
16.10.2017 22:00:00 13,2 9,8 11,0 15,2 15,2 11 6 18 10 O 1025,4 20 0 0,0
16.10.2017 21:00:00 15,0 10,4 11,9 15,1 15,2 9 5 18 10 O 1025,1 20 0 0,0
16.10.2017 20:00:00 15,8 10,8 9,0 15,0 15,3 9 5 12 6 ZO 1025,0 20 0 0,0
16.10.2017 19:00:00 18,8 10,6 12,1 14,9 15,3 4 2 16 8 ZZO 1023,9 13 35 0,0
16.10.2017 18:00:00 20,9 11,2 21,5 14,8 15,3 11 6 23 12 ZZO 1022,9 49 60 0,0
16.10.2017 17:00:00 21,8 11,8 25,3 14,7 15,3 13 7 24 13 ZO 1022,6 31 60 0,0
16.10.2017 16:00:00 22,1 12,4 26,0 14,7 15,3 15 8 25 13 ZO 1022,8 16 60 0,0
16.10.2017 15:00:00 21,6 11,3 26,4 14,6 15,2 16 9 28 15 ZO 1023,0 19 60 0,0
16.10.2017 14:00:00 21,2 12,1 25,5 14,6 15,3 16 9 29 15 ZO 1023,6 19 60 0,0
16.10.2017 13:00:00 20,2 11,1 23,9 14,7 15,3 18 10 31 17 ZO 1024,3 19 60 0,0
16.10.2017 12:00:00 19,3 10,3 22,2 14,7 15,3 16 9 34 19 ZO 1024,4 18 60 0,0
16.10.2017 11:00:00 18,0 9,3 19,1 14,8 15,3 16 9 30 16 ZO 1024,6 19 60 0,0
16.10.2017 10:00:00 16,4 7,1 13,5 14,8 15,3 12 7 22 12 OZO 1024,8 20 60 0,0
16.10.2017 09:00:00 13,3 6,2 10,0 14,9 15,3 13 7 19 11 O 1025,0 20 31 0,0
16.10.2017 08:00:00 12,3 6,6 10,0 14,9 15,3 13 7 20 11 O 1024,6 37 0 0,0
16.10.2017 07:00:00 11,6 7,5 9,9 15,0 15,3 14 8 19 11 O 1024,9 35 0 0,0
16.10.2017 06:00:00 11,8 7,9 10,1 15,0 15,3 13 7 19 10 O 1024,8 30 0 0,0
16.10.2017 05:00:00 11,6 8,6 8,8 15,0 15,2 11 6 16 9 O 1025,2 32 0 0,0
16.10.2017 04:00:00 12,8 9,4 11,5 15,1 15,3 12 6 25 14 O 1025,2 31 0 0,0
16.10.2017 03:00:00 12,9 9,9 12,0 15,1 15,3 19 10 31 17 O 1025,4 31 0 0,0
16.10.2017 02:00:00 13,2 10,2 12,1 15,1 15,3 18 10 26 14 O 1025,6 29 0 0,0
16.10.2017 01:00:00 13,3 10,3 12,2 15,1 15,3 15 8 27 14 O 1026,2 28 0 0,0
16.10.2017 00:00:00 13,9 10,7 12,9 15,1 15,3 16 9 25 14 O 1026,2 28 0 0,0
15.10.2017 23:00:00 14,5 11,1 13,0 15,1 15,3 13 7 24 13 O 1026,2 31 0 0,0
15.10.2017 22:00:00 14,8 11,2 12,9 15,0 15,3 14 7 29 15 ZO 1026,1 32 0 0,0
15.10.2017 21:00:00 15,2 11,2 12,2 14,9 15,3 9 5 14 8 OZO 1025,8 30 0 0,0
15.10.2017 20:00:00 16,1 11,5 13,2 14,8 15,3 9 5 23 13 ZO 1025,5 29 0 0,0
15.10.2017 19:00:00 18,2 12,0 15,7 14,7 15,3 12 6 24 13 ZO 1024,3 32 46 0,0
15.10.2017 18:00:00 20,2 12,4 21,6 14,6 15,3 12 7 24 13 ZZO 1023,6 38 60 0,0
15.10.2017 17:00:00 21,4 12,8 25,0 14,5 15,3 16 9 26 14 ZZO 1023,3 27 60 0,0
15.10.2017 16:00:00 21,9 12,7 25,8 14,5 15,3 17 9 31 17 ZZO 1023,3 19 60 0,0
15.10.2017 15:00:00 21,7 12,5 26,3 14,5 15,3 16 9 28 15 ZZO 1023,6 20 60 0,0
15.10.2017 14:00:00 21,3 12,4 25,4 14,4 15,3 19 10 31 17 OZO 1024,3 19 60 0,0
15.10.2017 13:00:00 20,7 12,7 24,8 14,5 15,3 18 10 30 16 OZO 1024,9 19 60 0,0
15.10.2017 12:00:00 19,2 12,7 22,1 14,5 15,3 16 9 29 16 OZO 1025,5 15 60 0,0
15.10.2017 11:00:00 17,9 12,1 18,8 14,5 15,3 18 10 31 17 OZO 1025,8 20 60 0,0
15.10.2017 10:00:00 15,6 10,1 14,0 14,6 15,3 15 8 23 12 O 1026,1 20 60 0,0
15.10.2017 09:00:00 13,5 9,2 10,6 14,7 15,3 15 8 22 12 O 1026,5 19 27 0,0
15.10.2017 08:00:00 11,9 8,2 10,0 14,7 15,3 16 9 22 12 O 1026,6 28 0 0,0
15.10.2017 07:00:00 11,3 7,4 9,1 14,8 15,3 15 8 21 12 O 1026,7 28 0 0,0
15.10.2017 06:00:00 10,8 6,2 8,7 14,8 15,3 16 8 20 11 O 1026,7 30 0 0,0
15.10.2017 05:00:00 10,8 5,3 8,9 14,9 15,3 14 8 21 11 O 1026,5 4,7 0 0,0
15.10.2017 04:00:00 11,2 5,5 9,6 14,9 15,3 15 8 21 12 O 1026,5 6 0 0,0
15.10.2017 03:00:00 11,9 7,4 8,7 15,0 15,3 11 6 24 13 O 1026,6 25 0 0,0
15.10.2017 02:00:00 11,5 6,4 8,5 15,0 15,3 12 6 18 10 O 1026,9 28 0 0,0
15.10.2017 01:00:00 11,8 8,5 3,6 15,0 15,3 13 7 19 10 ZO 1026,7 25 0 0,0
15.10.2017 00:00:00 10,3 6,4 5,0 15,0 15,3 5 3 14 8 ZO 1027,0 18 0 0,0
14.10.2017 23:00:00 10,9 7,0 7,0 15,0 15,3 11 6 14 8 OZO 1026,8 20 0 0,0
14.10.2017 22:00:00 11,6 7,5 7,1 14,9 15,3 7 4 15 8 O 1026,7 19 0 0,0
14.10.2017 21:00:00 13,1 8,8 9,0 14,8 15,3 10 6 12 6 O 1026,3 18 0 0,0
14.10.2017 20:00:00 16,5 9,7 10,6 14,7 15,3 9 5 11 6 O 1024,9 33 0 0,0
14.10.2017 19:00:00 20,6 8,9 13,0 14,6 15,4 7 4 12 6 ZO 1023,6 37 38 0,0
14.10.2017 18:00:00 23,8 6,6 26,4 14,5 15,3 3 1 11 6 Z 1022,7 20 60 0,0
14.10.2017 17:00:00 24,2 2,9 28,6 14,4 15,3 7 4 14 8 ZZO 1022,8 50 60 0,0
14.10.2017 16:00:00 24,2 4,5 28,9 14,3 15,4 7 4 15 8 OZO 1022,8 20 60 0,0
14.10.2017 15:00:00 24,2 5,5 30,5 14,3 15,3 7 4 18 10 ZO 1023,0 18 60 0,0
14.10.2017 14:00:00 23,9 3,8 30,2 14,2 15,3 6 3 13 7 ZO 1023,7 20 60 0,0
14.10.2017 13:00:00 23,0 7,9 29,0 14,3 15,4 5 3 11 6 OZO 1024,5 20 60 0,0
14.10.2017 12:00:00 21,1 9,3 25,6 14,3 15,3 7 4 11 6 O 1025,4 20 60 0,0
14.10.2017 11:00:00 18,1 8,6 19,0 14,4 15,4 6 3 14 8 O 1026,3 20 60 0,0
14.10.2017 10:00:00 13,8 6,4 12,1 14,4 15,4 9 5 16 9 O 1027,2 20 60 0,0
14.10.2017 09:00:00 10,0 5,8 5,8 14,5 15,4 10 6 16 8 O 1028,0 31 35 0,0
14.10.2017 08:00:00 8,2 4,4 4,6 14,6 15,4 10 6 15 8 OZO 1028,0 34 0 0,0

tt = temperatuur
td = dauwpunt
tt 5cm = temperatuur 5cm
tt -20cm = temperatuur -20cm
tt -100cm = temperatuur -100cm
ff = windsnelheid
fx = windstoten
dd = windrichting
ppp = luchtdruk
vv = zicht
sd = Zonneschijnduur
rr = neerslag

Weerstations in de omgeving